Simultaneous Nadir Overpasses (SNOs) Predictions

Prediction of SNOs between GOES-14 and NOAA-20 Satellite Orbit:

Table of predicted SNOs for the next 14.0 days since TLE Epoch: 12/6/2019
Index Date Time (GOES-14) GOES-14 Lat,Lon NOAA-20 Lat,Lon Distance(km) Time Diff (sec)
1 12/08/2019 20:20:27 -0.02,-104.05 -0.05,-104.26 23.16 80
2 12/09/2019 20:04:21 -0.03,-104.06 0.92, -99.71 494.29 80
3 12/11/2019 08:26:11 0.02,-104.28 0.16,-105.00 82.39 80
4 12/12/2019 08:04:45 0.03,-104.27 -0.81,-100.46 433.53 80
5 12/13/2019 20:26:42 -0.01,-104.03 -0.37,-105.76 196.66 80
6 12/14/2019 20:10:36 -0.02,-104.03 0.60,-101.22 320.21 80
7 12/16/2019 08:32:24 0.00,-104.27 0.53,-106.50 254.93 80
8 12/17/2019 08:11:00 0.01,-104.26 -0.50,-101.97 260.85 80
9 12/18/2019 20:32:55 0.00,-104.01 -0.74,-107.26 371.27 80
10 12/19/2019 20:16:51 -0.00,-104.01 0.29,-102.73 145.61 80




NCC Satellite Simultaneous Nadir Overpasses (SNOs) Prediction Service
